Zurück zum Katalog

ATLAS 5 CENTAUR DEB

LostHEO
NORAD 57587·DEBRIS·🇺🇸 United States

Gestartet Oct 17, 2018 von Cape Canaveral Space Force Station

Loading…

Nächste Überflüge (nächste 24 Stunden)

TLE

VeraltetSource: Space-Track

Epoche: May 22, 2026, 19:34 UTC

1 57587U 18079HN  26142.81571755 -.00000087  00000-0  00000-0 0  9997
2 57587  13.5868  43.5966 4690067 291.9532  25.4941  1.77530108 22192

Verfolge ATLAS 5 CENTAUR DEB in Echtzeit mit AllMySat

Download on the App Store